Location: Oleyres
(46.8536°N, 7.0378°E)
Time: 14:19:01
(UTC+00:00)

Daily predictions for brighter satellites

Satellite Brightness Start Highest point End
(mag) Time Altitude Azimuth Time Altitude Azimuth Time Altitude Azimuth
CZ-4C R/B 4.1 18:53:28 10° W 18:58:10 32° NNW 19:03:46 10° NNE
MetOp-A 4.2 18:52:52 10° SSE 18:58:12 76° ENE 19:03:35 10° N
Cosmos 2227 Rocket 3.5 18:54:32 10° SE 18:58:25 19° E 19:02:20 10° NE
BREEZE-M DEB (TANK) 3.5 18:57:20 10° WSW 19:00:11 87° SSE 19:07:08 10° ENE
ATLAS 2AS CENTAUR R/B 3.4 18:52:18 10° SW 19:00:12 73° NW 19:07:59 10° NE
Cosmos 1092 Rocket 4.0 18:54:56 10° N 19:01:14 84° E 19:07:25 10° S
Cosmos 2058 3.0 18:59:42 10° N 19:03:52 63° E 19:07:59 10° SSE
Cosmos 2297 Rocket 3.0 19:00:12 10° SSE 19:04:53 28° ESE 19:09:36 10° NE
FALCON 9 DEB 4.4 19:03:37 10° S 19:05:49 18° SE 19:08:01 10° E
Cosmos 1633 4.2 19:03:48 10° NNE 19:06:25 19° ENE 19:09:01 10° ESE
Cosmos 405 3.4 19:03:30 10° SSW 19:06:57 66° WNW 19:10:25 10° N
Lacrosse 5 rocket 3.6 19:03:57 10° NW 19:07:08 21° N 19:10:27 10° NE
FALCON 9 DEB 4.0 19:07:56 10° SSW 19:10:26 23° SE 19:12:57 10° E
Resurs 01 Rocket 2.8 19:09:02 10° SE 19:12:48 28° ENE 19:16:36 10° N
Cosmos 2219 4.0 19:09:14 10° SSE 19:14:00 29° ESE 19:18:48 10° NE
Genesis I 4.3 19:10:25 10° NNW 19:14:06 34° NE 19:17:40 11° ESE
Resurs 1-3 4.0 19:10:16 10° SE 19:14:26 45° ENE 19:18:37 10° N
BREEZE-M DEB (TANK) 3.5 19:11:43 10° WSW 19:15:19 83° NNW 19:27:32 10° ENE
Cosmos 2333 Rocket 3.3 19:10:57 10° NW 19:16:23 45° WSW 19:21:47 10° S
SJ-6B 2.7 19:14:37 10° SSE 19:18:21 86° ENE 19:22:10 10° NNW
Cosmos 1689 Rocket 4.4 19:16:08 10° N 19:18:38 28° WNW 19:21:06 10° SW
CZ-2C R/B 3.9 19:15:52 10° N 19:20:49 46° WNW 19:25:50 10° SW
Cosmos 2084 Rocket 4.3 19:18:48 10° S 19:22:02 24° ESE 19:25:20 10° ENE
FALCON 9 DEB 3.6 19:19:42 10° SSW 19:22:27 31° SE 19:25:12 10° ENE
Cosmos 389 Rocket 2.8 19:19:22 10° S 19:22:44 45° E 19:26:11 10° NNE
ERS-2 3.0 19:19:35 10° N 19:23:09 54° WNW 19:26:42 10° SSW
Ariane Rocket 3.0 19:19:47 10° SSE 19:24:48 70° ENE 19:29:51 10° N
Cosmos 614 Rocket 3.9 19:21:09 10° SSW 19:26:16 73° ESE 19:31:22 10° NNE
Cosmos 2251 Rocket 3.7 19:22:40 10° SSW 19:28:02 81° WNW 19:33:24 10° NNE
FALCON 9 DEB 4.1 19:25:43 10° W 19:29:03 48° NNW 19:32:24 10° NE
ATLAS 3B R/B 3.3 19:24:00 10° NW 19:30:55 61° WSW 19:38:06 10° SSE
Cosmos 2279 Rocket 4.0 19:26:52 10° S 19:32:58 65° E 19:39:07 10° NNE
MOS 1 4.3 19:32:30 10° SSE 19:38:09 89° WSW 19:43:51 10° NNW
Cosmos 1980 3.7 19:33:13 10° NNW 19:38:56 84° ENE 19:44:12 12° SSE
Cosmos-2242 3.9 19:35:48 12° SSE 19:39:09 30° E 19:42:55 10° NNE
Cosmos 2026 Rocket 4.4 19:33:15 10° NNW 19:39:17 66° W 19:45:20 10° S
SL-16 R/B 3.2 19:34:16 10° NNW 19:39:27 34° NE 19:43:26 15° ESE
USA 215 3.9 19:34:32 10° E 19:40:46 49° NNE 19:47:01 10° NW
Cosmos 2151 3.4 19:36:49 10° N 19:41:00 46° ENE 19:44:09 16° SE
FALCON 9 DEB 3.2 19:41:18 10° SW 19:44:12 41° SE 19:46:41 13° ENE
SPOT 3 Rocket 3.7 19:40:39 13° SE 19:45:05 56° ENE 19:50:09 10° N
Cosmos 1455 4.1 19:43:40 10° SW 19:47:03 32° WNW 19:50:27 10° N
COSMOS 2455 3.6 19:43:03 10° SSE 19:48:05 29° ESE 19:53:08 10° NE
SL-4 R/B 2.4 19:46:56 10° SW 19:51:07 49° SE 19:55:36 10° ENE
Cosmos 2219 Rocket 4.1 19:48:33 10° NW 19:53:15 27° WSW 19:57:56 10° SSW
USA 186 4.3 19:51:04 10° SW 19:53:35 20° W 19:56:02 10° NW
BREEZE M DEB (TANK) 4.3 19:51:18 10° SSW 19:54:38 34° SE 20:03:06 10° ENE
ERS-1 Rocket 4.4 19:53:54 16° E 19:56:17 23° ENE 20:00:09 10° N
IGS 5A 3.5 19:54:20 20° SSE 19:57:06 60° ENE 20:01:12 10° N
Cosmos 1076 Rocket 3.8 19:52:54 10° NNW 19:57:13 66° W 20:01:29 10° S
COSMOS 2428 4.4 19:52:39 10° NW 19:57:34 30° WSW 20:02:29 10° SSW
Cosmos 2266 Rocket 4.1 19:51:30 10° N 19:57:48 59° ENE 20:02:35 17° SSE
OBJECT-B 2.8 19:55:29 10° SSW 19:58:17 27° W 20:01:07 10° NW
Landsat 7 4.0 19:55:13 19° SE 19:58:31 58° ENE 20:03:12 10° N
ATLAS 5 CENTAUR R/B 3.4 19:58:17 10° W 19:59:22 13° SW 20:00:43 10° SSW
Cosmos 2292 Rocket 4.4 19:57:19 10° NNW 20:03:48 73° W 20:08:33 10° S
Cosmos 2221 4.4 20:05:05 14° ENE 20:05:05 14° ENE 20:06:56 10° NE
Cosmos 2344 4.0 19:58:23 10° SW 20:05:46 65° NW 20:13:50 10° NE
ARIANE 5 R/B 3.5 20:04:04 24° ESE 20:05:52 33° ENE 20:09:49 10° N
USA 245 3.7 20:05:50 29° ESE 20:06:41 34° ENE 20:09:29 10° N
Cosmos 407 Rocket 3.4 20:01:41 10° SSW 20:06:50 88° ESE 20:12:03 10° NNE
IRIDIUM 104 4.5 20:05:38 10° S 20:10:51 76° W 20:16:06 10° N
Cosmos 1023 Rocket 4.4 20:06:48 10° SSW 20:11:54 89° E 20:17:01 10° NNE
MetOp-B 4.1 20:09:17 21° SSE 20:12:54 74° ENE 20:18:16 10° N
Meteor 2-3 Rocket 3.7 20:08:02 10° N 20:13:50 79° ENE 20:17:47 21° SSE
Cosmos 44 Rocket 3.8 20:13:44 10° S 20:18:26 40° ESE 20:23:17 10° NE
Meteor 1-27 4.3 20:14:09 16° S 20:18:42 59° E 20:24:25 10° NNE
Cosmos 1140 Rocket 3.5 20:14:58 10° SSW 20:20:06 82° WNW 20:25:16 10° NNE
Cosmos 1812 Rocket 4.3 20:17:34 10° SSW 20:21:55 54° WNW 20:26:20 10° N
Cosmos 1954 Rocket 4.0 20:19:29 12° S 20:24:12 60° ESE 20:29:18 10° NNE
CZ-2C R/B 3.5 20:20:22 10° NNE 20:24:48 72° ESE 20:27:43 21° S
Cosmos 2237 Rocket 3.0 20:21:15 10° NW 20:26:37 46° WSW 20:30:47 16° S
Timation 2 Rocket 4.0 20:20:32 10° SSW 20:27:07 88° ESE 20:33:27 10° NNE
Cosmos 2263 Rocket 3.7 20:34:38 18° E 20:34:38 18° E 20:37:08 10° ENE
Spot 2 Rocket 3.5 20:32:07 34° SE 20:34:16 69° ENE 20:39:20 10° N
CARTOSAT-1 3.8 20:33:28 42° ESE 20:34:34 54° ENE 20:38:48 10° N
Cosmos 1766 Rocket 3.4 20:30:44 10° N 20:35:05 71° E 20:36:22 44° SSE
BREEZE M DEB (TANK) 2.6 20:27:38 10° WSW 20:35:07 75° NNW 20:36:34 30° ENE
Cosmos 1633 4.2 20:38:04 10° NNW 20:41:15 30° W 20:43:20 17° SW
FALCON 9 DEB 3.1 20:38:18 10° WSW 20:41:19 67° NNW 20:41:38 61° NNE
Cosmos 2227 Rocket 2.4 20:36:13 10° SW 20:41:53 71° WNW 20:47:33 10° NNE
Cosmos 2082 3.6 20:37:15 14° SSW 20:41:59 66° ESE 20:47:34 10° NNE
Okean 3 Rocket 3.5 20:39:42 10° N 20:44:16 88° E 20:45:39 45° S
FALCON 9 DEB 3.5 20:43:00 10° WSW 20:45:59 53° NNW 20:46:28 46° NNE
Lacrosse 5 rocket 3.2 20:43:46 10° NW 20:47:24 26° NNE 20:49:58 16° ENE
Cosmos 2297 Rocket 3.0 20:43:09 10° SW 20:48:38 51° WNW 20:54:10 10° NNE
Cosmos 1869 3.2 20:47:58 50° SSW 20:48:58 88° W 20:52:56 10° N
Resurs 01 Rocket 3.0 20:46:10 16° SSW 20:49:11 34° W 20:53:16 10° NNW
Cosmos 468 Rocket 4.0 20:45:15 10° NNW 20:50:23 67° ENE 20:51:46 47° SE
Meteor 1-4 Rocket 2.3 20:50:30 83° SSW 20:50:37 87° W 20:54:10 10° N
Cosmos 841 Rocket 4.3 20:50:18 10° N 20:55:08 37° ENE 20:56:15 33° E
Cosmos 2219 4.1 20:52:30 10° SW 20:57:54 48° WNW 21:03:22 10° NNE
FALCON 9 DEB 3.9 20:55:09 10° W 20:58:05 43° NNW 20:58:12 43° NNW
Cosmos 2084 Rocket 4.5 20:57:29 10° WSW 21:01:17 42° NW 21:05:12 10° NNE
Cosmos 1763 Rocket 3.3 20:58:08 10° NNW 21:03:14 82° ENE 21:04:17 57° SE
Terra 1.9 21:03:52 53° ESE 21:04:28 58° ENE 21:09:10 10° N
BREEZE-M DEB (TANK) 4.3 21:08:08 10° W 21:08:46 17° W 21:08:46 17° W
Cosmos 540 Rocket 3.7 21:05:58 10° NNW 21:11:00 53° ENE 21:11:41 49° E
Cosmos 921 Rocket 4.0 21:08:21 10° N 21:12:21 35° ENE 21:12:21 35° ENE
SPOT 5 2.7 21:14:08 65° S 21:14:47 82° WSW 21:19:39 10° NNW
NOSS 3-1 (C) 4.0 21:09:31 10° NW 21:17:00 84° NE 21:20:23 41° SE
Meteor 2-2 Rocket 4.1 21:15:41 51° S 21:17:09 76° E 21:22:51 10° NNE
Cosmos 1842 Rocket 3.4 21:20:26 82° ENE 21:20:26 82° ENE 21:24:52 10° N
USA 215 3.2 21:21:35 48° SE 21:23:36 76° SW 21:30:10 10° NW
SL-16 R/B 2.9 21:18:18 10° NW 21:23:42 45° WSW 21:25:19 36° SSW
SL-08 ROCKET BODY 4.3 21:24:24 10° N 21:30:30 82° E 21:31:36 61° SSE
SL-4 R/B 2.8 21:26:20 10° W 21:30:48 59° NNW 21:33:33 24° ENE
COSMOS 2455 3.4 21:27:44 10° SW 21:33:40 58° NW 21:39:37 10° NNE
ERS-1 Rocket 3.4 21:33:53 48° SW 21:34:44 54° W 21:39:40 10° NNW
Cosmos 1408 Rocket 4.0 21:30:32 10° NNW 21:34:45 52° W 21:34:51 52° W
Cosmos 2227 4.3 21:40:44 57° E 21:40:44 57° E 21:45:59 10° NNE
Cosmos 2221 2.9 21:41:54 59° WNW 21:41:54 59° WNW 21:46:02 10° N
Cosmos 1862 4.1 21:38:09 10° NNW 21:41:30 46° WNW 21:41:30 46° WNW
ARIANE 5 R/B 4.1 21:41:36 26° WSW 21:42:21 27° W 21:46:06 10° NW
Sich 1 4.1 21:38:23 10° N 21:41:28 36° NE 21:41:28 36° NE
Cosmos 1805 Rocket 4.2 21:38:32 10° N 21:41:58 46° NE 21:41:58 46° NE
Cosmos 1943 3.0 21:44:07 10° NNW 21:49:47 78° ENE 21:50:06 75° E
Cosmos 1745 Rocket 3.8 21:46:16 10° N 21:52:36 84° E 21:53:25 69° SSE
Cosmos 1570 Rocket 3.9 21:48:00 10° NNW 21:53:15 78° NE 21:53:15 78° NE
SeaSat 1 3.9 21:48:47 10° NE 21:51:19 26° ENE 21:51:19 26° ENE
Cosmos 1743 Rocket 4.1 21:49:20 10° NNW 21:53:02 55° NW 21:53:02 55° NW
Cosmos 1709 Rocket 4.1 21:51:41 10° N 21:57:47 55° ENE 21:58:09 54° E
Cosmos 1606 4.3 22:06:55 33° N 22:06:55 33° N 22:09:10 10° N
S3M 3.9 22:05:25 69° SSW 22:06:17 88° WNW 22:12:44 10° N
BREEZE-M DEB (TANK) 4.5 22:01:50 10° WNW 22:06:19 33° W 22:06:19 33° W
Cosmos 2263 Rocket 2.2 22:16:15 68° W 22:16:38 71° WNW 22:22:14 10° NNE
Aureole 1 Rocket 4.2 22:17:34 44° W 22:18:29 49° WNW 22:22:54 10° N
USA 229 DEB 3.9 22:19:00 10° NW 22:26:13 62° WSW 22:27:01 59° SSW
USA 229 3.9 22:19:04 10° NW 22:26:19 62° WSW 22:27:08 59° SSW
Lacrosse 5 rocket 2.7 22:22:44 10° NW 22:25:35 40° NW 22:25:35 40° NW
Cosmos 1844 Rocket 4.1 22:30:56 27° ENE 22:30:56 27° ENE 22:33:57 10° NE
Cosmos 2208 Rocket 4.5 22:28:09 10° NNW 22:32:47 56° WNW 22:32:47 56° WNW
ALOS 2 3.8 22:35:37 38° NNE 22:35:37 38° NNE 22:38:36 10° N
Cosmos 1603 4.4 22:33:01 10° NW 22:37:52 43° W 22:37:52 43° W
Terra 3.9 22:42:44 18° W 22:42:44 18° W 22:45:51 10° NW
NOSS 3-1 (A) 4.3 22:36:48 10° NW 22:44:13 56° WSW 22:45:03 54° SW
Meteor 1-14 Rocket 4.4 22:59:03 10° NNW 23:04:37 77° NNW 23:04:37 77° NNW
SL-4 R/B 3.9 23:06:31 10° WNW 23:09:09 30° NW 23:09:09 30° NW
NOSS 2-2 (C) 4.4 23:09:33 10° NW 23:14:35 80° NNW 23:14:35 80° NNW
Cosmos 2184 Rocket 4.0 23:08:48 10° N 23:14:58 78° NE 23:14:58 78° NE
NOSS 2-2 (E) 4.5 23:10:36 10° NW 23:15:39 75° WNW 23:15:39 75° WNW
Cosmos 2315 Rocket 4.5 23:16:01 50° W 23:16:28 51° WNW 23:22:40 10° N
Cosmos 2278 Rocket 4.3 23:19:29 15° E 23:19:29 15° E 23:21:26 10° ENE
ATLAS 5 CENTAUR R/B 3.5 23:19:41 10° NNW 23:24:39 36° NE 23:27:06 26° E
SeaSat 1 3.6 23:26:23 10° NNE 23:30:53 36° NW 23:31:05 36° WNW
Nimbus 7 Rocket 4.5 23:34:19 10° NNE 23:39:53 70° NW 23:39:53 70° NW
Cosmos 1844 3.9 23:41:40 69° N 23:41:40 69° N 23:46:43 10° NNE
Cosmos 2074 Rocket 4.1 23:35:20 10° NNW 23:41:12 65° WNW 23:41:12 65° WNW
USA 281 3.2 23:43:08 66° ESE 23:43:52 71° ENE 23:50:26 10° NNW
COSMOS 2406 4.2 23:38:38 10° NNW 23:43:57 39° NE 23:44:55 36° ENE
Gbstr 26 Del rocket 4.4 23:53:47 47° E 23:53:47 47° E 23:57:45 10° ENE
